Location: Eastchurch
(51.4000°N, 0.8667°E)
Time: 22:37:41
(UTC+00:00)

Cosmos 1452 Rocket - Pass Details

Date: 19 January 2026
Orbit: 762 x 771 km, 74.1° (Epoch: 7 February)

Event Time Altitude Azimuth Distance (km) Brightness Sun altitude
Rises 18:12:37 0° 216° (SW) 3,227 7.5 -16.5°
Reaches altitude 10° 18:15:01 10° 220° (SW) 2,306 6.7 -16.8°
Maximum altitude 18:20:10 57° 300° (WNW) 906 4.1 -17.6°
Drops below altitude 10° 18:25:23 10° 19° (NNE) 2,326 5.7 -18.4°
Enters shadow 18:25:33 - 19° (NNE) 2,389 5.8 -18.4°
